Regional Weather Roundup
Issued by NWS

Home | Current Version | Previous Version | Graphics & Text | Print | Product List | Glossary On
Versions: 1 2 3 4 5 6 7 8 9 10 11 12 13 14 15 16 17 18 19 20 21 22 23 24 25 26 27 28 29 30 31 32 33 34 35 36 37 38 39 40 41 42 43 44 45 46 47 48 49 50
000
ASUS43 KIND 292159
RWRIN

WEATHER ROUNDUP FOR INDIANA
NATIONAL WEATHER SERVICE INDIANAPOLIS IN
600 PM EDT MON AUG 29 2016

NOTE: "FAIR" INDICATES FEW OR NO CLOUDS BELOW 12,000 FEET WITH NO
SIGNIFICANT WEATHER AND/OR OBSTRUCTIONS TO VISIBILITY.

* - STATION DOES NOT REPORT WEATHER SUCH AS PRECIPITATION OR FOG.

+ - STATION NOT QUALITY CONTROLLED BY THE NATIONAL WEATHER SERVICE.
    USE DATA WITH CAUTION...ESPECIALLY DEWPOINT AND RELATIVE
    HUMIDITY OBSERVATIONS.

INZ001>003-010>013-019-020-292300-
NORTHWEST INDIANA

CITY           SKY/WX    TMP DP  RH WIND       PRES   REMARKS
GARY /AIRPORT/ PTSUNNY   81  75  83 NE5       30.17F
KNOX *+        SUNNY     86  45  23 CALM      30.18S
MONTICELLO +   SUNNY     86  68  54 E3        30.16F

$$

LMZ046-743>745-292300-
SOUTHERN LAKE MICHIGAN

STATION/POSITION TIME  TEMP    WIND        PRES    WAVE
                       AIR SEA DIR/SP/G            HT
                 (UTC) (F)     (DEG/KT/KT) (MB)    (FT)
BURNS HARBOR     2100   78      60/  8/  9 1022.4S
MICHIGAN CITY    2100   74      30/ 10/ 11   N/A
5NW MICH CITY    2100   77 77   40/ 10/ 14   N/A     1

$$

INZ004-005-014>016-021>024-292300-
NORTH CENTRAL INDIANA

CITY           SKY/WX    TMP DP  RH WIND       PRES   REMARKS
ELKHART        MOSUNNY  N/A N/A N/A E5        30.19F
GOSHEN         CLOUDY    84  71  65 E6        30.19F
PERU/GRISSOM   MOSUNNY   85  72  63 E6        30.17S
SOUTH BEND     CLOUDY    84  72  67 E5        30.19F

$$

INZ006>009-017-018-025>027-292300-
NORTHEAST INDIANA

CITY           SKY/WX    TMP DP  RH WIND       PRES   REMARKS
ANGOLA *+      MOSUNNY   82  70  65 CALM      30.21S
FORT WAYNE     MOSUNNY   86  67  52 SE5       30.19F

$$

INZ028-029-035-036-043>045-051>053-292300-
WEST CENTRAL INDIANA

CITY           SKY/WX    TMP DP  RH WIND       PRES   REMARKS
CRAWFORDSVL +  SUNNY     85  70  60 CALM      30.16F
LAFAYETTE      SUNNY     86  73  65 CALM      30.15F
TERRE HAUTE    SUNNY     89  68  49 E5        30.15S

$$

INZ030>032-037>040-046>048-054>057-064-065-292300-
CENTRAL INDIANA

CITY           SKY/WX    TMP DP  RH WIND       PRES   REMARKS
COLUMBUS       MOSUNNY   86  73  66 NE6       30.15F
INDIANAPOLIS   MOSUNNY   88  68  51 CALM      30.15F
-EAGLE CREEK   SUNNY     89  64  43 E3        30.15F
KOKOMO *+      CLOUDY    82  73  74 NE8       30.18R
MT COMFORT *+  SUNNY     84  72  65 NE7       30.18S
SHELBYVILLE    MOSUNNY   90  69  50 E5        30.15F

$$

INZ033-034-041-042-049-050-058-059-292300-
EAST CENTRAL INDIANA

CITY           SKY/WX    TMP DP  RH WIND       PRES   REMARKS
MUNCIE         SUNNY     85  73  67 E8        30.18F

$$

INZ060-061-067>069-081>083-085>088-292300-
SOUTHWEST INDIANA

CITY           SKY/WX    TMP DP  RH WIND       PRES   REMARKS
EVANSVILLE     MOSUNNY   91  70  49 NE8       30.11F HX  96
HUNTINGBURG *+ SUNNY     90  70  51 NE7       30.12F HX  95

$$

INZ062-063-066-070>080-084-089>092-292300-
SOUTH CENTRAL AND SOUTHEAST INDIANA

CITY           SKY/WX    TMP DP  RH WIND       PRES   REMARKS
BLOOMINGTON    SUNNY     88  70  55 N6        30.15F
MADISON *+     CLOUDY    81  73  78 CALM      30.16S

$$





USA.gov is the U.S. government's official web portal to all federal, state and local government web resources and services.